Monroe, WI

5:19 AM CST on December 11, 2019 (GMT -0600)
Monroe Municipal

Weather History for KEFT - August, 2019

Change the Weather History Date:

Tuesday, August 13, 2019

  Actual Average Record
Temperature  
Mean Temperature 74 °F -  
Max Temperature 82 °F 80 °F 86 °F (2018)
Min Temperature 66 °F 55 °F 23 °F (1998)
Cooling Degree Days 10    
Growing Degree Days 24 (Base 50)    
Moisture  
Dew Point 67 °F    
Average Humidity 86    
Maximum Humidity 98    
Minimum Humidity 54    
Precipitation  
Precipitation 0.21 in - - ()
Sea Level Pressure  
Sea Level Pressure 29.88 in    
Wind  
Wind Speed 5 mph (North)    
Max Wind Speed 15 mph    
Max Gust Speed 20 mph    
Visibility 8 miles    
Events Rain    
Averages and records for this station are not official NWS values.
T = Trace of Precipitation, MM = Missing Value Source: NWS Daily Summary

Daily Weather History Graph

Daily Weather History Graph

Search for Another Location

Airport or City:

Astronomy

Aug. 13, 2019 Rise Set
Actual Time 6:02 AM CDT 8:03 PM CDT
Civil Twilight 5:32 AM CDT 8:33 PM CDT
Nautical Twilight 4:54 AM CDT 9:11 PM CDT
Astronomical Twilight 4:13 AM CDT 9:51 PM CDT
Moon 7:20 PM CDT (8/13) 4:01 AM CDT (8/13)
Length of Visible Light 15h 01m
Length of Day
14h 00m
Waxing Gibbous, 97% of the Moon is Illuminated
Aug 13
Waxing Gibbous
Aug 15
Full
Aug 23
Last Quarter
Aug 30
New
Sep 5
First Quarter

Hourly Weather History & Observations

Time (CDT) Temp. Heat Index Dew Point Humidity Pressure Visibility Wind Dir Wind Speed Gust Speed Precip Events Conditions
12:15 AM 68.9 °F - 67.6 °F 96% 29.84 in 10.0 mi North 3.5 mph - N/A   Overcast
12:35 AM 68.9 °F - 67.8 °F 96% 29.84 in 7.0 mi NNW 4.6 mph - N/A   Overcast
12:55 AM 68.9 °F - 67.8 °F 96% 29.84 in 7.0 mi North 4.6 mph - N/A   Overcast
1:15 AM 68.9 °F - 68.0 °F 97% 29.84 in 7.0 mi NW 5.8 mph - N/A   Light Drizzle
1:35 AM 68.9 °F - 67.8 °F 96% 29.85 in 7.0 mi North 4.6 mph - 0.01 in   Overcast
1:55 AM 68.7 °F - 67.8 °F 97% 29.84 in 5.0 mi North 5.8 mph - 0.01 in   Overcast
2:15 AM 68.5 °F - 67.6 °F 97% 29.84 in 3.0 mi NNE 4.6 mph - N/A Rain Rain
2:35 AM 68.4 °F - 67.5 °F 97% 29.84 in 3.0 mi North 6.9 mph - N/A   Drizzle
2:55 AM 68.2 °F - 67.3 °F 97% 29.84 in 3.0 mi North 6.9 mph - 0.01 in Rain Heavy Rain
3:15 AM 68.2 °F - 67.3 °F 97% 29.84 in 2.5 mi NNE 5.8 mph - 0.01 in   Drizzle
3:35 AM 68.0 °F - 67.3 °F 98% 29.84 in 2.5 mi North 5.8 mph - 0.03 in   Drizzle
3:55 AM 68.0 °F - 67.1 °F 97% 29.84 in 2.5 mi North 5.8 mph - 0.03 in   Drizzle
4:15 AM 68.0 °F - 67.1 °F 97% 29.83 in 5.0 mi North 5.8 mph - N/A   Light Drizzle
4:35 AM 67.8 °F - 67.1 °F 98% 29.84 in 7.0 mi Calm Calm - N/A   Overcast
4:55 AM 67.5 °F - 66.7 °F 98% 29.84 in 5.0 mi Calm Calm - 0.01 in   Drizzle
5:15 AM 67.3 °F - 66.6 °F 98% 29.85 in 7.0 mi Calm Calm - 0.01 in   Drizzle
5:35 AM 67.8 °F - 66.7 °F 96% 29.85 in 7.0 mi NNE 4.6 mph - 0.02 in   Overcast
5:55 AM 67.5 °F - 66.6 °F 97% 29.85 in 7.0 mi North 4.6 mph - 0.02 in   Overcast
6:15 AM 67.6 °F - 66.7 °F 97% 29.86 in 3.0 mi North 4.6 mph - N/A   Overcast
6:35 AM 67.6 °F - 66.9 °F 98% 29.86 in 7.0 mi NNW 3.5 mph - N/A   Overcast
6:55 AM 67.8 °F - 67.1 °F 98% 29.86 in 10.0 mi Calm Calm - N/A   Overcast
7:15 AM 68.0 °F - 67.1 °F 97% 29.86 in 10.0 mi NNW 4.6 mph - N/A   Scattered Clouds
7:35 AM 70.0 °F - 68.5 °F 95% 29.86 in 10.0 mi Calm Calm - N/A   Clear
7:55 AM 70.7 °F - 68.5 °F 93% 29.87 in 10.0 mi North 3.5 mph - N/A   Clear
8:15 AM 71.8 °F - 68.9 °F 91% 29.88 in 10.0 mi North 6.9 mph - N/A   Scattered Clouds
8:35 AM 71.2 °F - 68.4 °F 91% 29.89 in 10.0 mi NNW 5.8 mph - N/A   Mostly Cloudy
8:55 AM 72.5 °F - 68.9 °F 88% 29.89 in 10.0 mi NNW 5.8 mph - N/A   Mostly Cloudy
9:15 AM 72.5 °F - 68.4 °F 87% 29.89 in 10.0 mi NNW 5.8 mph - N/A   Mostly Cloudy
9:35 AM 73.9 °F - 68.5 °F 83% 29.90 in 10.0 mi NNW 6.9 mph - N/A   Mostly Cloudy
9:55 AM 72.7 °F - 68.4 °F 86% 29.90 in 10.0 mi NW 6.9 mph - N/A   Overcast
10:15 AM 72.5 °F - 68.2 °F 86% 29.90 in 10.0 mi NNW 3.5 mph - N/A   Overcast
10:35 AM 74.5 °F - 68.4 °F 81% 29.90 in 10.0 mi NNE 3.5 mph - N/A   Mostly Cloudy
10:55 AM 75.6 °F - 67.5 °F 76% 29.90 in 10.0 mi Calm Calm - N/A   Scattered Clouds
11:15 AM 76.8 °F - 67.3 °F 72% 29.90 in 10.0 mi NE 3.5 mph - N/A   Scattered Clouds
11:35 AM 77.5 °F - 67.8 °F 72% 29.90 in 10.0 mi Calm Calm - N/A   Mostly Cloudy
11:55 AM 78.3 °F - 67.8 °F 70% 29.90 in 10.0 mi NE 4.6 mph - N/A   Mostly Cloudy
12:35 PM 78.3 °F - 68.2 °F 71% 29.90 in 10.0 mi NNE 6.9 mph - N/A   Mostly Cloudy
12:55 PM 76.6 °F - 68.4 °F 75% 29.90 in 10.0 mi Calm Calm - N/A   Scattered Clouds
1:15 PM 78.6 °F - 67.1 °F 68% 29.90 in 10.0 mi Calm Calm - N/A   Mostly Cloudy
1:35 PM 77.7 °F - 67.5 °F 71% 29.89 in 10.0 mi Calm Calm - N/A   Mostly Cloudy
1:55 PM 79.9 °F - 66.7 °F 64% 29.89 in 10.0 mi West 9.2 mph - N/A   Mostly Cloudy
2:35 PM 79.7 °F - 66.6 °F 64% 29.88 in 10.0 mi WNW 8.1 mph - N/A   Mostly Cloudy
2:55 PM 81.3 °F 83.6 °F 66.9 °F 61% 29.88 in 10.0 mi West 13.8 mph 18.4 mph N/A   Mostly Cloudy
3:15 PM 81.7 °F 83.8 °F 66.2 °F 59% 29.88 in 10.0 mi West 15.0 mph - N/A   Scattered Clouds
3:35 PM 82.0 °F 83.9 °F 65.7 °F 57% 29.88 in 10.0 mi West 9.2 mph - N/A   Scattered Clouds
3:55 PM 80.4 °F 82.4 °F 65.7 °F 61% 29.88 in 10.0 mi WNW 11.5 mph - N/A   Clear
4:15 PM 82.6 °F 84.1 °F 64.6 °F 54% 29.88 in 10.0 mi WNW 9.2 mph 18.4 mph N/A   Clear
4:35 PM 82.2 °F 84.0 °F 65.3 °F 56% 29.87 in 10.0 mi WNW 9.2 mph - N/A   Scattered Clouds
4:55 PM 80.6 °F 83.1 °F 67.5 °F 64% 29.88 in 10.0 mi North 15.0 mph 19.6 mph N/A   Mostly Cloudy
5:15 PM 75.6 °F - 67.5 °F 76% 29.88 in 10.0 mi NNE 9.2 mph - N/A   Mostly Cloudy
5:35 PM 74.3 °F - 66.2 °F 76% 29.89 in 10.0 mi NNE 6.9 mph - N/A   Mostly Cloudy
5:55 PM 74.3 °F - 66.0 °F 75% 29.89 in 10.0 mi North 6.9 mph - N/A   Mostly Cloudy
6:15 PM 73.0 °F - 67.3 °F 82% 29.91 in 2.0 mi West 11.5 mph - 0.01 in Rain Heavy Rain
6:35 PM 73.0 °F - 67.1 °F 82% 29.89 in 10.0 mi Calm Calm - 0.10 in   Mostly Cloudy
6:55 PM 74.3 °F - 67.3 °F 79% 29.90 in 10.0 mi NW 3.5 mph - 0.13 in   Scattered Clouds
7:15 PM 73.0 °F - 67.5 °F 83% 29.90 in 10.0 mi Calm Calm - N/A   Scattered Clouds
7:35 PM 71.6 °F - 68.4 °F 89% 29.90 in 10.0 mi Calm Calm - N/A   Clear
7:55 PM 71.1 °F - 67.5 °F 88% 29.91 in 10.0 mi NNW 4.6 mph - N/A   Clear
8:15 PM 70.0 °F - 67.5 °F 92% 29.92 in 10.0 mi North 3.5 mph - N/A   Clear
8:35 PM 69.8 °F - 68.0 °F 94% 29.92 in 10.0 mi North 3.5 mph - N/A   Scattered Clouds
8:55 PM 69.1 °F - 67.3 °F 94% 29.94 in 10.0 mi NNE 4.6 mph - N/A   Scattered Clouds
9:15 PM 69.1 °F - 67.8 °F 96% 29.94 in 10.0 mi NNE 4.6 mph - N/A   Scattered Clouds
9:35 PM 69.4 °F - 68.2 °F 96% 29.93 in 10.0 mi ENE 4.6 mph - N/A   Scattered Clouds
9:55 PM 69.8 °F - 68.0 °F 94% 29.93 in 10.0 mi ENE 4.6 mph - N/A   Clear
10:15 PM 69.8 °F - 68.0 °F 94% 29.93 in 10.0 mi Calm Calm - N/A   Clear
10:35 PM 69.6 °F - 68.0 °F 95% 29.94 in 10.0 mi Calm Calm - N/A   Clear
10:55 PM 69.1 °F - 68.0 °F 96% 29.94 in 10.0 mi ENE 5.8 mph - N/A   Clear
11:15 PM 68.7 °F - 67.5 °F 96% 29.94 in 7.0 mi East 5.8 mph - N/A   Mostly Cloudy
11:35 PM 67.6 °F - 66.6 °F 96% 29.94 in 7.0 mi East 4.6 mph - N/A   Mostly Cloudy
11:55 PM 66.7 °F - 65.7 °F 96% 29.95 in 10.0 mi East 4.6 mph - N/A   Mostly Cloudy